User: anonymous   Login
Location: Unspecified
(0.0000°N, 0.0000°E)
Time: 01:45:18
(UTC+00:00)
Language:

LATINSAT B - Orbit

View from above orbital plane
View from above orbital plane
View from above satellite
View from above satellite

Ground track
Ground track

The orbit data is extracted from the following two-line orbital elements,

1 27606U 02058B   18324.16804275 -.00000049  00000-0  14571-4 0  9993
2 27606  64.5573  40.5325 0086449 303.6401  55.6473 14.72180463854575
Epoch (UTC): 20 November 2018 04:01:58
Eccentricity: 0.0086449
inclination: 64.5573°
perigee height: 593 km
apogee height: 715 km
right ascension of ascending node: 40.5325°
argument of perigee: 303.6401°
revolutions per day: 14.72180463
mean anomaly at epoch: 55.6473°
orbit number at epoch: 85457

The dashed part of the orbit path shows where the satellite is in the earth's shadow,  

DLR